Regional Weather Roundup
Issued by NWS

Home | Current Version | Previous Version | Graphics & Text | Print | Product List | Glossary On
Versions: 1 2 3 4 5 6 7 8 9 10 11 12 13 14 15 16 17 18 19 20 21 22 23 24 25 26 27 28 29 30 31 32 33 34 35 36 37 38 39 40 41 42 43 44 45 46 47 48 49 50
000
ASUS45 KBOU 282007
RWRCO

WEATHER ROUNDUP FOR COLORADO
NATIONAL WEATHER SERVICE DENVER/BOULDER CO
100 PM MST FRI NOV 28 2014

NOTE: "FAIR" INDICATES FEW OR NO CLOUDS BELOW 12000 FEET WITH NO
SIGNIFICANT WEATHER AND/OR OBSTRUCTIONS TO VISIBILITY.

COZ001>005-013-030-031-282100-
...NORTHWEST COLORADO...

CITY           SKY/WX    TMP DP  RH WIND       PRES   REMARKS
CRAIG          PTSUNNY   50  25  37 NE7       30.03F
HAYDEN         PTSUNNY   36  23  60 E7        30.05F
MEEKER         MOSUNNY   54  18  24 SW15G24   30.05F
MOUNT WERNER   NOT AVBL
STEAMBOAT SPGS PTSUNNY   32  25  76 CALM      30.07F
WALDEN         PTSUNNY   46  14  27 SW21G29   30.05R
$$

COZ006>008-011-282100-
...WEST CENTRAL VALLEYS...

CITY           SKY/WX    TMP DP  RH WIND       PRES   REMARKS
GRAND JUNCTION MOSUNNY   46  26  45 NW6       30.10F
MONTROSE       MOSUNNY   56  19  23 CALM      30.11F
EAGLE          MOSUNNY   52  23  32 CALM      30.10F
RIFLE          SUNNY     47  24  40 CALM      30.10F
DELTA          MOSUNNY   55  22  27 CALM      30.09F
NUCLA          MOSUNNY   55  18  22 NW3       30.16F
$$

COZ017>023-064>068-282100-
...SOUTHWEST COLORADO...

CITY           SKY/WX    TMP DP  RH WIND       PRES   REMARKS
DURANGO        SUNNY     55  20  25 VRB3      30.19F
CORTEZ         SUNNY     56  22  26 SW7       30.16F
PAGOSA SPRINGS SUNNY     53  10  17 CALM      30.22F
TELLURIDE      MOSUNNY   54   3  12 SW6       30.25F
WOLF CREEK PAS SUNNY     34   9  35 MISG      30.33F
$$

COZ009-010-012-014-032>034-037-058>063-282100-
...CENTRAL COLORADO...

CITY           SKY/WX    TMP DP  RH WIND       PRES   REMARKS
ASPEN          MOSUNNY   50  19  29 N6        30.10F
BUENA VISTA    MOSUNNY   58   2  10 W20G33    30.07F
COPPER MTN       N/A     37   5  25 W39G47    30.23F HAZE
BERTHOUD PASS  NOT AVBL
COTTONWOOD PAS MOSUNNY   50 -13   7 W30G56    30.11F
GUNNISON       SUNNY     34  21  60 CALM      30.24F
KREMMLING      MOSUNNY   54  12  19 W9        30.08F
LEADVILLE      MOSUNNY   44   8  23 W16G24    30.17F
MONARCH PASS   SUNNY     34   0  23 W46G56    30.37F WCI  17
SALIDA         MOSUNNY   63   3   9 SW12G23   30.14F
SUNLIGHT       SUNNY     39  27  60 CALM      30.24F
WILKERSON PASS MOSUNNY   46  -4  12 W17G29    30.17S
$$

COZ069>075-282100-
...SAN LUIS VALLEY/SANGRE DE CRISTO MOUNTAINS...

CITY           SKY/WX    TMP DP  RH WIND       PRES   REMARKS
ALAMOSA        SUNNY     56  14  19 CALM      30.12F
LA VETA PASS   NOT AVBL
SAGUACHE       SUNNY     46  18  31 S5        30.16F
$$

COZ035-036-038>040-282100-
...NORTHERN COLORADO FRONT RANGE...

CITY           SKY/WX    TMP DP  RH WIND       PRES   REMARKS
DENVER INTL AP CLOUDY    67  15  13 E8        29.85F
DMNS CITY PARK   N/A     67  16  14 E10       29.84F
AURORA         PTSUNNY   67  10  10 E7        29.87F
FRONT RANGE AP NOT AVBL
ERIE MUNI ARPT PTSUNNY   67   8   9 SW6       29.83F
BOULDER MUN AP PTSUNNY   64  14  14 NE7       29.82F
CENTENNIAL     CLOUDY    67   8  10 E6        29.87F
BROOMFIELD     NOT AVBL
FORT COLLINS   PTSUNNY   66  16  14 W17G23    29.83F
LONGMONT       PTSUNNY   65  15  14 E6        29.85S
$$

COZ041-046-047-076>085-087-088-282100-
...PIKES PEAK/PALMER DIVIDE AND SOUTHERN FOOTHILLS...

CITY           SKY/WX    TMP DP  RH WIND       PRES   REMARKS
COLO. SPRINGS  PTSUNNY   63   8  11 SE8       29.93F
A. F. ACADEMY  CLOUDY    63  11  13 S9        29.93F
ELLICOTT       NOT AVBL
FALCON         NOT AVBL
FORT CARSON    PTSUNNY   64  14  14 E7        29.90F
LIMON          MOSUNNY   69   5   8 SW6       29.88F
MONUMENT HILL  CLOUDY    61   5  11 CALM      29.95F
TRINIDAD       PTSUNNY   67  19  16 E6        29.95F
$$

COZ042>045-048>051-090-091-282100-
...NORTHEAST COLORADO...

CITY           SKY/WX    TMP DP  RH WIND       PRES   REMARKS
GREELEY ARPT   CLOUDY    52  30  43 SE7       29.83F
AKRON          CLOUDY    64  22  20 W12       29.84F
BURLINGTON     MOSUNNY   77   6   6 W10       29.83F
WRAY           MOSUNNY   73  17  11 W9        29.81S
STERLING       CLOUDY    55  36  47 S8        29.80F
HOLYOKE        MOSUNNY   70  21  16 W14       29.79F
FORT MORGAN    CLOUDY    55  24  30 CALM      29.84F
$$

COZ086-089-092>099-282100-
...SOUTHEAST COLORADO...

CITY           SKY/WX    TMP DP  RH WIND       PRES   REMARKS
PUEBLO         PTSUNNY   70  17  13 SW6       29.87F
LA JUNTA       PTSUNNY   75  12   9 W14       29.86F
LAMAR          PTSUNNY   73  22  14 W14       29.82F
SPRINGFIELD      N/A     77   7   7 SW13      29.87F
$$



USA.gov is the U.S. government's official web portal to all federal, state and local government web resources and services.